Regional Weather Roundup
Issued by NWS Kansas City/Pleasant Hill, MO

Home | Current Version | Previous Version | Text Only | Print | Product List | Glossary On
Versions: 1 2 3 4 5 6 7 8 9 10 11 12 13 14 15 16 17 18 19 20 21 22 23 24 25 26 27 28 29 30 31 32 33 34 35 36 37 38 39 40 41 42 43 44 45 46 47 48 49 50
000
ASUS43 KEAX 051310
RWREAX

WEATHER ROUNDUP FOR EASTERN KANSAS AND NORTHWEST MISSOURI
NATIONAL WEATHER SERVICE KANSAS CITY/PLEASANT HILL MO
800 AM CDT SUN JUL 05 2015

KSZ040-057-103>105-MOZ028-029-037-043-051400-
...KANSAS CITY METROPOLITAN AREA...

CITY           SKY/WX    TMP DP  RH WIND       PRES   REMARKS
K.C. INTL      PTSUNNY   72  68  87 SE13      29.98S
K.C. DOWNTOWN  MOSUNNY   75  68  78 S8        29.98S
LEES SUMMIT    SUNNY     72  67  84 S9        30.01S
OLATHE - IXD   MOSUNNY   71  68  90 S8        30.00S FOG
OLATHE - OJC   MOSUNNY   70  67  90 S7        29.99S FOG
LAWRENCE       SUNNY     71  68  90 SE6       29.98S FOG

$$

MOZ001>008-011>017-020>025-030>033-038>040-044>046-053-054-051400-
...NORTHERN AND CENTRAL MISSOURI...

CITY           SKY/WX    TMP DP  RH WIND       PRES   REMARKS
ST. JOSEPH     MOSUNNY   71  66  84 S6        29.98R HAZE
MOSBY          MOSUNNY   70  68  94 S3        29.99S FOG
HARRISONVILLE  MOSUNNY   75  70  83 SE5       30.03S FOG
WARRENSBURG    SUNNY     72  68  88 S7        30.01S FOG
WHITEMAN AFB   SUNNY     72  71  95 S9        30.00F
CLINTON        SUNNY     73  72  94 S8        30.03S FOG
SEDALIA        SUNNY     73  69  87 S8        30.04S FOG
WARSAW         FAIR      72  72 100 CALM      30.04R FOG
CHILLICOTHE      N/A     71  67  87 S5        30.02S
KIRKSVILLE     HVY RAIN  69  65  86 SE7       30.03S FOG

$$

MOZ041-047>049-056>058-063>065-088>090-097-051400-
...EASTERN AND SOUTHERN MISSOURI...

CITY           SKY/WX    TMP DP  RH WIND       PRES   REMARKS
ST. LOUIS INTL SUNNY     73  65  75 SE5       30.07R HAZE
SPIRIT OF STL  SUNNY     69  65  86 CALM      30.05S FOG
COLUMBIA       SUNNY     71  69  93 S8        30.04S FOG
JEFFERSON CITY SUNNY     70  68  93 E6        30.04R FOG
MEXICO         SUNNY    N/A N/A N/A S6        30.04S FOG
ROLLA          CLOUDY    68  67  96 S9        30.07R FOG
LEBANON        CLOUDY    72  70  94 S9        30.08R FOG
OSAGE BEACH    CLOUDY    70  66  88 S7        30.06R
SPRINGFIELD    CLOUDY    72  70  93 S12       30.05S
BRANSON        FOG       68  68 100 CALM      30.07S VSB 1/8
JOPLIN         SUNNY     75  69  81 S10       30.03R
WEST PLAINS    CLOUDY    71  69  93 E5        30.09F FOG
MALDEN         FOG       72  72 100 CALM      30.08S VSB<1/4

$$

IAZ060-094-KSZ022-034>040-054-083-096-NEZ052-066-093-051400-
...KANSAS...SOUTHEAST NEBRASKA AND IOWA...

CITY           SKY/WX    TMP DP  RH WIND       PRES   REMARKS
TOPEKA         MOSUNNY   73  68  84 E3        29.97R
MANHATTAN      PTSUNNY   77  69  76 S7        29.92S
EMPORIA        MOSUNNY   73  68  84 SE14      29.95F
CHANUTE        MOSUNNY   74  71  91 S9        30.00R
WICHITA        PTSUNNY   75  70  84 S12       29.94R
OMAHA          CLOUDY    71  64  78 S15       29.93S
LINCOLN        CLOUDY    71  66  84 S7        29.92R
FALLS CITY     MOSUNNY   71  66  84 S7        29.96R
LAMONI         MOSUNNY   69  65  86 S6        30.01R
DES MOINES     CLOUDY    69  62  78 S8        29.99R

$$



USA.gov is the U.S. government's official web portal to all federal, state and local government web resources and services.